Regional Weather Roundup
Issued by NWS

Home | Current Version | Previous Version | Text Only | Print | Product List | Glossary Off
Versions: 1 2 3 4 5 6 7 8 9 10 11 12 13 14 15 16 17 18 19 20 21 22 23 24 25 26 27 28 29 30 31 32 33 34 35 36 37 38 39 40 41 42 43 44 45 46 47 48 49 50

677
ASUS43 KOAX 222102
RWRNE

WEATHER ROUNDUP FOR NEBRASKA
NATIONAL WEATHER SERVICE OMAHA NE
400 PM CDT SUN APR 22 2018

NOTES: SATELLITE DATA IS BEING USED TO AUGMENT CLOUD COVER ABOVE
       12000 FEET.
       "FAIR" INDICATES FEW OR NO CLOUDS BELOW 12,000 FEET WITH NO
       SIGNIFICANT WEATHER AND/OR OBSTRUCTIONS TO VISIBILITY.


NEZ001>004-019>022-054>056-222200-
NEBRASKA PANHANDLE

CITY           SKY/WX    TMP DP  RH WIND       PRES   REMARKS
SCOTTSBLUFF    SUNNY     61  42  49 VRB5      30.12F
ALLIANCE       MOSUNNY   59  39  47 SE6       30.11F
CHADRON        SUNNY     64  36  35 SE7       30.08F
GORDON         FAIR      59  37  43 SE6       30.11F
KIMBALL        SUNNY     60  33  36 CALM      30.13F
SIDNEY         SUNNY     57  29  34 VRB5      30.14F
$$

NEZ057>060-069>072-079>082-222200-
SOUTHWEST NEBRASKA

CITY           SKY/WX    TMP DP  RH WIND       PRES   REMARKS
NORTH PLATTE   CLOUDY    56  39  53 W6        30.18F
IMPERIAL       PTSUNNY   52  35  52 CALM      30.19F
LEXINGTON      MOSUNNY   59  39  47 S5        30.18F
MCCOOK         FAIR      59  39  47 MISG      30.17F
OGALLALA       MOSUNNY   53  37  55 E3        30.18F
$$

NEZ005>010-023>029-035>040-094-222200-
NORTH CENTRAL NEBRASKA

CITY           SKY/WX    TMP DP  RH WIND       PRES   REMARKS
VALENTINE      PTSUNNY   60  37  42 SE14      30.15F
AINSWORTH      MOSUNNY   59  39  48 S12G17    30.17F
BROKEN BOW     SUNNY     58  38  47 VRB5      30.18F
O`NEILL        SUNNY     64  29  27 S7        30.19F
ORD            SUNNY     63  31  30 E6        30.16F
THEDFORD       PTSUNNY   57  38  48 SE7       30.17F
$$

NEZ041-046>049-061>064-073>077-083>087-222200-
SOUTH CENTRAL NEBRASKA

CITY           SKY/WX    TMP DP  RH WIND       PRES   REMARKS
GRAND ISLAND   SUNNY     65  36  34 E7        30.16F
AURORA         SUNNY     66  33  29 E12G17    30.15F
HASTINGS       SUNNY     64  37  36 N8G16     30.16F
HEBRON         CLOUDY    60  36  40 E12       30.15F
HOLDREGE       SUNNY     59  39  47 NE8       30.17F
KEARNEY        SUNNY     60  36  40 NE7       30.18F
YORK             N/A     66  34  30 E7G16     30.15F
$$

NEZ011>018-030>034-042>045-222200-
NORTHEAST NEBRASKA

CITY           SKY/WX    TMP DP  RH WIND       PRES   REMARKS
NORFOLK        SUNNY     65  31  28 E6        30.17F
ALBION         MOSUNNY   65  34  31 SE7       30.17F
BLAIR          CLOUDY    70  33  26 E15       30.15F
COLUMBUS       SUNNY     67  33  28 E7        30.16F
FREMONT        CLOUDY    69  32  25 E8        30.16F
TEKAMAH        CLOUDY    68  30  24 E10       30.16F
WAYNE          SUNNY     65  29  26 NE7       30.18F
$$

NEZ050>053-065>068-078-088>093-222200-
SOUTHEAST NEBRASKA

CITY           SKY/WX    TMP DP  RH WIND       PRES   REMARKS
LINCOLN        CLOUDY    67  32  27 E9        30.16F
OMAHA EPPLEY   CLOUDY    70  31  23 E14       30.15F
BEATRICE       CLOUDY    64  36  36 NE7       30.15S
FALLS CITY     PTSUNNY   69  40  34 NE13G22   30.10F
NEBRASKA CITY  PTSUNNY   69  37  31 N10G18    30.12F
PLATTSMOUTH    CLOUDY    68  31  25 E9G17     30.15F
$$

NEZ044-045-051>053-067-222200-
OMAHA AREA

CITY           SKY/WX    TMP DP  RH WIND       PRES   REMARKS
OMAHA EPPLEY   CLOUDY    70  31  23 E14       30.15F
BLAIR          CLOUDY    70  33  26 E15       30.15F
FREMONT        CLOUDY    69  32  25 E8        30.16F
MILLARD        CLOUDY    69  35  28 NE5       30.15F
OFFUTT AFB     CLOUDY    69  33  26 E10G18    30.14F
PLATTSMOUTH    CLOUDY    68  31  25 E9G17     30.15F
WAHOO          CLOUDY    68  27  21 NE8G18    30.15F
$$




USA.gov is the U.S. government's official web portal to all federal, state and local government web resources and services.